User: anonymous   Login
Location: Nag� el Ma?a??a
(24.0667°N, 32.8833°E)
Time: 00:06:44
(UTC+00:00)
Language:

ISS - Orbit

View from above orbital plane
View from above orbital plane
View from above satellite
View from above satellite

Ground track
Ground track

The orbit data is extracted from the following two-line orbital elements,

1 25544U 98067A   23028.86509081  .00018244  00000-0  32393-3 0  9994
2 25544  51.6433 298.6263 0004574 288.3324 187.2023 15.50253619380180
Epoch (UTC): 28 January 2023 20:45:43
Eccentricity: 0.0004574
inclination: 51.6433°
perigee height: 413 km
apogee height: 419 km
right ascension of ascending node: 298.6263°
argument of perigee: 288.3324°
revolutions per day: 15.50253619
mean anomaly at epoch: 187.2023°
orbit number at epoch: 38018

The dashed part of the orbit path shows where the satellite is in the earth's shadow,  

DLR